#timestamp,LO_Frequency,Hit,StdDev 
1681650015.6,286047002.3,N
1681650035.5,286047000.0,N
1681650055.3,286047000.3,N
1681650075.1,286046999.9,N
1681650095.9,286047000.5,N
1681650115.7,286047000.7,N
1681650135.6,286047001.2,N
1681650155.4,286047000.9,N
1681650175.2,286047001.2,N
1681650195.1,286046998.4,N
1681650196.0,286046998.4,N
1681650215.8,286047001.2,N
1681650235.7,286046998.5,N
1681650255.5,286046998.6,N
1681650275.3,286046998.7,N
1681650295.2,286046998.7,N
1681650315.0,286046998.4,N
1681650315.9,286046998.4,N
1681650335.7,286046998.4,N
1681650355.6,286046998.4,N
1681650375.4,286046998.5,N
1681650395.3,286046998.9,N
1681650415.1,286046998.3,N
1681650416.0,286046998.3,N
1681650435.8,286046998.7,N
1681650455.7,286046998.4,N
1681650475.5,286046998.1,N
1681650495.3,286046998.2,N
1681650515.2,286046998.2,N
1681650535.0,286047000.5,N
1681650535.9,286047000.5,N
1681650555.8,286046998.3,N
1681650575.6,286046998.2,N
1681650595.4,286047000.8,N
1681650615.3,286047001.2,N
1681650635.1,286047000.8,N
1681650655.8,286047000.2,N
1681650675.7,286047000.3,N
1681650695.5,286047000.4,N
1681650715.4,286047000.5,N
1681650765.2,286047001.0,E
1681650775.1,286047000.4,N
1681650795.9,286047001.0,P
1681650815.7,286047000.7,N
1681650835.6,286046998.1,Y
1681650855.4,286046999.0,P
1681650875.2,286046999.5,N
1681650895.1,286046999.2,N
1681650896.0,286046999.2,N
1681650915.8,286046998.4,N
1681650935.7,286046998.7,N
1681650955.5,286046998.2,N
1681650975.3,286046998.2,N
1681650995.2,286047000.6,N
1681651015.9,286047002.7,Y
1681651035.7,286047002.7,P
1681651055.6,286047000.3,N
1681651075.4,286047000.1,N
1681651095.3,286047000.1,N
1681651115.1,286047000.2,N
1681651116.0,286047000.2,N
1681651135.8,286047000.3,N
1681651155.7,286047000.9,N
1681651175.5,286047000.9,N
1681651195.3,286047000.9,N
1681651215.2,286047000.4,N
1681651235.0,286047000.8,N
1681651235.9,286047000.8,N
1681651255.8,286046998.3,N
1681651275.6,286046998.7,N
1681651295.4,286046998.2,N
1681651315.3,286047000.7,N
1681651335.1,286047001.2,N
1681651355.8,286047000.2,N
1681651375.7,286046999.8,N
1681651395.5,286047000.6,N
1681651415.4,286047000.3,N
1681651435.2,286047000.7,N
1681651455.0,286047001.2,N
1681651455.9,286047001.2,N
1681651475.8,286047000.6,N
1681651495.6,286047001.1,N
1681651515.4,286047001.2,N
1681651535.3,286046999.9,N
1681651555.1,286047000.6,N
1681651575.9,286047000.0,N
1681651595.7,286046999.7,N
1681651615.5,286047002.3,N
1681651635.4,286047000.1,N
1681651655.2,286047002.0,N
1681651675.0,286047000.5,N
1681651675.9,286047000.5,N
1681651695.8,286047001.1,N
1681651715.6,286047000.3,N
1681651735.5,286047000.0,N
1681651755.3,286046998.5,N
1681651775.1,286046999.9,N
1681651795.9,286047000.8,N
1681651815.7,286046998.2,N
1681651835.5,286046998.6,N
1681651855.4,286047001.2,N
1681651875.2,286047000.9,N
1681651895.1,286046998.4,N
1681651896.0,286046998.4,N
1681651915.8,286046998.8,N
1681651935.6,286047000.9,N
1681651955.5,286047000.9,N
1681651975.3,286047000.0,N
1681651995.2,286047000.2,N
1681652015.9,286047001.0,N
1681652035.7,286047001.1,N
1681652055.6,286046998.1,N
1681652075.4,286047001.0,N
1681652095.3,286046998.1,N
1681652115.1,286046998.1,N
1681652116.0,286046998.1,N
1681652135.8,286047000.6,N
1681652155.7,286047000.4,N
1681652175.5,286047001.1,N
1681652195.3,286047000.8,N
1681652215.2,286047001.2,N
1681652235.0,286046998.4,N
1681652235.9,286046998.4,N
1681652255.8,286046999.1,N
1681652275.6,286046998.4,N
1681652295.4,286046998.4,N
1681652315.3,286047000.8,N
1681652335.1,286047001.0,N
1681652355.9,286046998.4,N
1681652375.7,286046999.3,N
1681652395.5,286046998.6,N
1681652415.4,286046998.3,N
1681652435.2,286046998.2,N
1681652455.0,286047000.9,N
1681652455.9,286047000.9,N
1681652475.8,286047000.4,N
1681652495.6,286047001.1,N
1681652515.5,286047000.3,N
1681652535.3,286047000.0,N
1681652555.1,286046998.3,N
1681652575.9,286046999.1,N
1681652595.7,286046998.2,N
1681652615.6,286047000.1,N
1681652635.4,286047002.8,N
1681652655.2,286047002.8,N
1681652675.1,286047002.7,N
1681652676.0,286047002.7,N
1681652695.8,286047002.8,N
1681652715.6,286046999.9,N
1681652735.5,286046999.9,N
1681652755.3,286047000.4,N
1681652775.2,286047000.9,N
1681652795.0,286047001.1,N
1681652795.9,286047001.1,N
1681652815.8,286047001.1,N
1681652835.6,286046999.3,N
1681652855.4,286046996.9,N
1681652875.3,286046998.2,N
1681652895.1,286046998.5,N
1681652915.9,286046998.6,N
1681652935.7,286046998.7,N
1681652955.5,286046999.1,N
1681652975.4,286046998.9,N
1681652995.2,286046999.6,N
1681653015.1,286046996.6,N
1681653016.0,286046996.6,N
1681653035.8,286046996.9,N
1681653055.6,286046999.1,N
1681653075.5,286046998.8,N
1681653095.3,286046998.2,N
1681653115.2,286046998.5,N
1681653135.0,286046998.1,N
1681653135.9,286046998.1,N
1681653155.7,286046998.6,N
1681653175.6,286046998.9,N
1681653195.4,286047000.6,N
1681653215.3,286046999.6,N
1681653235.1,286046999.3,N
1681653255.8,286046998.2,N
1681653275.7,286046997.0,N
1681653295.5,286046999.5,N
1681653315.4,286046997.3,N
1681653335.2,286046996.8,N
1681653355.0,286046995.0,Y
1681653355.9,286046995.0,P
1681653375.8,286046999.5,N
1681653395.6,286046998.9,N
1681653415.5,286046999.3,N
1681653435.3,286046999.2,N
1681653455.1,286046996.9,N
1681653475.9,286046999.3,N
1681653495.7,286046998.7,N
1681653515.6,286046999.1,N
1681653535.4,286046999.4,N
1681653555.2,286046999.1,N
1681653575.1,286046999.2,N
1681653576.0,286046999.2,N
1681653595.8,286046997.8,N
